TimeCDT,TemperatureF,Dew PointF,Humidity,Sea Level PressureIn,VisibilityMPH,Wind Direction,Wind SpeedMPH,Gust SpeedMPH,PrecipitationIn,Events,Conditions,WindDirDegrees,DateUTC
12:53 AM,72.0,69.1,91,29.80,10.0,East,5.8,-,N/A,,Partly Cloudy,80,2013-05-31 05:53:00
1:39 AM,73.4,68.0,83,29.79,10.0,East,8.1,-,N/A,,Mostly Cloudy,80,2013-05-31 06:39:00
1:46 AM,71.6,68.0,88,29.79,10.0,East,5.8,-,N/A,,Scattered Clouds,90,2013-05-31 06:46:00
1:53 AM,72.0,68.0,87,29.78,10.0,East,5.8,-,N/A,,Partly Cloudy,90,2013-05-31 06:53:00
2:53 AM,73.0,69.1,87,29.78,10.0,SE,3.5,-,N/A,,Scattered Clouds,130,2013-05-31 07:53:00
3:53 AM,72.0,66.9,84,29.78,10.0,ESE,4.6,-,N/A,,Partly Cloudy,110,2013-05-31 08:53:00
4:53 AM,71.1,64.9,81,29.78,10.0,South,4.6,-,N/A,,Mostly Cloudy,170,2013-05-31 09:53:00
5:53 AM,69.1,64.9,87,29.78,10.0,ENE,8.1,-,N/A,,Clear,60,2013-05-31 10:53:00
6:53 AM,70.0,66.0,87,29.81,10.0,North,5.8,-,N/A,,Mostly Cloudy,360,2013-05-31 11:53:00
7:53 AM,72.0,66.9,84,29.81,10.0,ENE,3.5,-,N/A,,Scattered Clouds,60,2013-05-31 12:53:00
8:53 AM,75.0,70.0,84,29.81,10.0,ENE,3.5,-,N/A,,Overcast,60,2013-05-31 13:53:00
9:53 AM,80.1,71.1,74,29.81,10.0,SSW,6.9,-,N/A,,Overcast,210,2013-05-31 14:53:00
10:53 AM,82.9,71.1,67,29.81,10.0,South,13.8,19.6,N/A,,Overcast,190,2013-05-31 15:53:00
11:53 AM,84.9,73.0,67,29.80,10.0,SSW,8.1,18.4,N/A,,Overcast,200,2013-05-31 16:53:00
12:53 PM,84.9,71.1,63,29.80,10.0,SSW,9.2,17.3,N/A,,Mostly Cloudy,200,2013-05-31 17:53:00
1:53 PM,86.0,71.1,61,29.78,10.0,SSW,15.0,19.6,N/A,,Overcast,210,2013-05-31 18:53:00
2:53 PM,87.1,72.0,61,29.76,10.0,SSW,10.4,19.6,N/A,,Mostly Cloudy,200,2013-05-31 19:53:00
3:53 PM,88.0,72.0,59,29.75,10.0,South,8.1,18.4,N/A,,Mostly Cloudy,180,2013-05-31 20:53:00
4:53 PM,88.0,70.0,55,29.73,10.0,South,11.5,-,N/A,,Partly Cloudy,190,2013-05-31 21:53:00
5:53 PM,87.1,71.1,59,29.70,10.0,SSE,6.9,-,N/A,,Scattered Clouds,160,2013-05-31 22:53:00
6:53 PM,87.1,71.1,59,29.62,10.0,SSE,8.1,-,N/A,,Clear,150,2013-05-31 23:53:00
7:53 PM,86.0,71.1,61,29.69,10.0,SE,3.5,-,N/A,,Clear,130,2013-06-01 00:53:00
8:53 PM,84.0,70.0,63,29.73,10.0,Calm,Calm,-,N/A,,Clear,0,2013-06-01 01:53:00
9:53 PM,82.0,72.0,71,29.76,10.0,Calm,Calm,-,N/A,,Mostly Cloudy,0,2013-06-01 02:53:00
10:53 PM,81.0,72.0,74,29.74,10.0,ESE,5.8,-,N/A,,Partly Cloudy,120,2013-06-01 03:53:00
11:53 PM,80.1,73.0,79,29.75,10.0,East,3.5,-,N/A,,Overcast,80,2013-06-01 04:53:00